{"data":{"norad_id":52698,"intl_designator":"2022-053AU","name":"STARLINK-4030","alt_names":[],"object_type":"PAYLOAD","status":"ACTIVE","operator":null,"country":"US","launch_date":"2022-05-18","launch_site_code":"AFETR","launch_vehicle":null,"mission":null,"orbit_class":"UNKNOWN","rcs_meters":null,"size_class":null,"mass_kg":null,"dimensions":null,"purposes":["comms"],"wikipedia_slug":null,"has_3d_model":false,"image_url":null,"decayed_at":null,"tle_current":{"epoch":"2026-05-25T00:50:42.283968Z","epoch_age_seconds":65247,"freshness":"FRESH","line1":"1 52698U 22053AU  26145.03521162  .00000756  00000+0  65567-4 0  9990","line2":"2 52698  53.2120 166.3843 0001167  82.2825 277.8300 15.08841412222601","mean_motion":15.08841412,"eccentricity":0.0001167,"inclination_deg":53.212,"raan_deg":166.3843,"arg_perigee_deg":82.2825,"mean_anomaly_deg":277.83,"bstar":6.5567e-5,"rev_number":22260,"period_min":95.437465365644,"perigee_km":538.93175691062,"apogee_km":540.54638918607,"semimajor_km":6917.8760730483,"source":"CELESTRAK","updated_at":"2026-05-25T13:38:17.237757Z"}}}